Miscellaneous Local Product
Issued by NWS Hastings, NE

Home | Current Version | Previous Version | Text Only | Print | Product List | Glossary On
Versions: 1 2 3 4 5 6 7 8 9 10 11 12 13 14 15 16 17 18 19 20 21 22 23 24 25 26 27 28 29 30 31 32 33 34 35 36 37 38 39 40 41 42 43 44 45 46 47 48 49 50
000
AXUS43 KGID 271002
MISGRI

GID CWA HOURLY WEATHER ROUNDUP
NATIONAL WEATHER SERVICE HASTINGS NE
500 AM CDT WED JUL 27 2016

NOTE: "FAIR" INDICATES FEW OR NO CLOUDS BELOW 12,000 FEET WITH NO
SIGNIFICANT WEATHER AND/OR OBSTRUCTIONS TO VISIBILITY.

...SOUTH CENTRAL NEBRASKA...

CITY           SKY/WX    TMP DP  RH WIND       PRES   REMARKS
GRAND ISLAND   CLOUDY    72  57  59 S10       29.93F
HASTINGS       CLOUDY    66  60  81 W8        29.97F
KEARNEY        PTCLDY    64   7  10 NW9       30.01S
ORD            PTCLDY    61  58  90 W8        29.96F
YORK           MOCLDY    70  59  68 S6        29.89F
AURORA         MOCLDY    71  58  63 SW10      29.91F
LEXINGTON      CLOUDY    62  60  94 CALM      30.04F
HOLDREGE       CLOUDY    63  60  89 S3        30.01F
HEBRON         CLOUDY    68  65  89 S6        30.01F

...NEBRASKA PANHANDLE...

CITY           SKY/WX    TMP DP  RH WIND       PRES   REMARKS
CHADRON        LGT RAIN  65  60  84 SE6       30.10F
ALLIANCE       LGT RAIN  65  59  81 SE18G30   30.10F
SCOTTSBLUFF    PTCLDY    66  58  75 SE10      30.12R
SIDNEY         PTCLDY    63  57  81 E14       30.15S

...WESTERN AND NORTH CENTRAL NEBRASKA...

CITY           SKY/WX    TMP DP  RH WIND       PRES   REMARKS
VALENTINE      CLEAR     61  58  90 MISG      30.06S
AINSWORTH      CLOUDY    60  59  94 W5        30.04S
ONEILL         PTCLDY    64  61  89 SW9       29.93F
BROKEN BOW     CLEAR     58  58 100 CALM      30.01F
IMPERIAL       CLOUDY    62  57  83 E9G18     30.11R
NORTH PLATTE   PTCLDY    61  59  93 SE7       30.07S
MCCOOK         CLOUDY    63  59  87 SE3       30.09R

...EASTERN NEBRASKA...

CITY           SKY/WX    TMP DP  RH WIND       PRES   REMARKS
NORFOLK        CLOUDY    68  65  90 CALM      29.88F
SO SIOUX CITY  MOCLDY    71  66  84 SE8       29.93F
TEKAMAH        CLOUDY    69  66  90 SE8       29.95F
COLUMBUS       CLOUDY    68  59  73 E5        29.87F
ALBION         CLOUDY    64  62  93 NW7       29.92F
OMAHA EPPLEY   CLOUDY    72  66  81 SE9       29.96F
OFFUTT AFB     CLOUDY    69  69 100 SE7       29.97F
MILLARD        CLOUDY    70  67  90 SE5       29.96F
LINCOLN        CLOUDY    71  67  87 S12       29.94F
NEBRASKA CITY  CLOUDY    67  67 100 SW5       30.01F
BEATRICE       CLOUDY    68  66  92 SW3       30.00F
FALLS CITY     PTCLDY    67  66  97 NW3       30.02R

...NORTHERN KANSAS...

CITY           SKY/WX    TMP DP  RH WIND       PRES   REMARKS
GOODLAND       CLOUDY    65  60  84 E12G21    30.11R
HILL CITY      CLOUDY    66  61  84 E6        30.09S
NORTON         SUNNY     64  55  72 S7        30.05S
SMITH CENTER   PTCLDY    66  59  77 E21       29.97F
BELOIT         CLEAR     72  66  83 E6        30.03F
HAYS           CLOUDY    72  55  56 NE17G29   30.08R
RUSSELL        CLOUDY    73  59  61 N14       30.06R
CONCORDIA      PTCLDY    71  66  84 E3        30.04F
SALINA         CLEAR     73  68  84 N12       30.04R
TOPEKA         PTCLDY    69  67  93 CALM      30.01R



USA.gov is the U.S. government's official web portal to all federal, state and local government web resources and services.